Other Public Products
Issued by NWS Grand Forks, ND

Home | Current Version | Previous Version | Text Only | Print | Product List | Glossary Off
Versions: 1 2 3 4 5 6 7 8 9 10 11 12 13 14 15 16 17 18 19 20 21 22 23 24 25 26 27 28 29 30 31 32 33 34 35 36 37 38 39 40 41 42 43 44 45 46 47 48 49 50

000
FPUS83 KFGF 060110
OPUFGF
PRAIRIE TO PINES WEATHER ROUNDUP
NATIONAL WEATHER SERVICE EASTERN NORTH DAKOTA/GRAND FORKS ND
800 PM CDT TUE MAY 05 2015

 **SATELLITE DATA USED TO AUGMENT SKY COVER AT AUTOMATED STATIONS**
 *****  WEATHER ACROSS EASTERN NORTH DAKOTA  *****

CITY           SKY/WX    TMP DP  RH WIND       PRES   REMARKS
GRAND FORKS    PTCLDY    74  31  20 SE12      29.93F
GRAND FORKS AF PTCLDY    73  33  23 SE8       29.93F
GRAND CITY NWS   N/A     72 N/A N/A SE13        N/A
BUXTON         NOT AVBL
DEVILS LAKE    CLOUDY    72  32  23 SE10      29.90F
FARGO          MOCLDY    74  50  42 S22G30    29.96S
WAHPETON ARPT  MOCLDY    68  50  52 SE22G28   29.99S
$$

 *****  WEATHER ACROSS CENTRAL AND WESTERN NORTH DAKOTA  *****

CITY           SKY/WX    TMP DP  RH WIND       PRES   REMARKS
JAMESTOWN      PTCLDY    72  49  44 SE20G28   29.90S
BISMARCK       CLEAR     74  45  35 S15       29.84S
MINOT          PTCLDY    74  32  21 SE18G25   29.81F
MINOT AFB      PTCLDY    73  33  22 S16       29.80F
GARRISON         N/A     72  41  32 S14       29.82F
WILLISTON      SUNNY     76  49  38 SE17G29   29.74S
DICKINSON      CLEAR     66  49  54 S23G33    29.79F
HETTINGER      PTCLDY    63  51  65 SE16G23   29.82F
$$

 *****  OTHER OBSERVATIONS NORTHEAST NORTH DAKOTA  *****

CITY           SKY/WX    TMP DP  RH WIND       PRES   REMARKS
WALHALLA       FAIR      72  27  18 SE10      29.94S
LANGDON        MOCLDY    72  21  15 S15       29.94F
CAVALIER       FAIR      73  23  15 SE9       29.94S
GRAFTON        FAIR      73  27  17 SE12      29.95S
CANDO          FAIR      72  28  20 SE12      29.91S
FORT TOTTEN      N/A     72  26  18 S9        29.95S
ROLLA          NOT AVBL
RUGBY          NOT AVBL
 ***** THE ABOVE OBSERVATIONS ARE NON NWS ARE NOT QUALITY
        CONTROLLED AND MAY MIS-REPORT RAIN FOR SNOW...
$$

 *****  OTHER OBSERVATIONS SOUTHEAST NORTH DAKOTA *****

CITY           SKY/WX    TMP DP  RH WIND       PRES   REMARKS
COOPERSTOWN    NOT AVBL
VALLEY CITY    FAIR      72  50  46 S20G28    29.93S
OAKES            N/A     70  55  60 SE16      29.93S
GWINNER        PTCLDY    72  54  53 SE18      29.95S
BUFFALO        NOT AVBL
WYNDMERE         N/A     70  55  60 SE15        N/A
 ***** THE ABOVE OBSERVATIONS ARE NON NWS ARE NOT QUALITY
       CONTROLLED AND MAY MIS-REPORT RAIN FOR SNOW...
$$

  *****  WEATHER ACROSS NORTHERN MINNESOTA  *****

CITY           SKY/WX    TMP DP  RH WIND       PRES   REMARKS
FLAG ISLAND    PTCLDY    66  30  26 CALM      30.03S
WARROAD        CLEAR     70  30  23 SE7       30.03S
ROSEAU         CLEAR     72  18  13 SE9       30.01S
HALLOCK        PTCLDY    73   5   7 S10       29.96S
THF RVR FALLS  CLOUDY    73  27  17 S12       30.00S
HALSTAD        NOT AVBL
FOSSTON        PTCLDY    72  34  25 S7        30.01S
BAUDETTE       PTCLDY    68  26  20 S5        30.04S
WASKISH        PTCLDY    70  34  26 CALM      30.05S
CROOKSTON      PTCLDY    73  34  23 SE15      29.97F
$$
  *****  WEATHER ACROSS CENTRAL AND WEST MINNESOTA  *****

CITY           SKY/WX    TMP DP  RH WIND       PRES   REMARKS
BEMIDJI        PTCLDY    68  37  31 SE9       30.04S
PARK RAPIDS    MOCLDY    71  42  35 S17       30.04S
WADENA         MOCLDY    66  46  48 SE13      30.05S
DETROIT LAKES  PTCLDY    68  46  45 S16       30.03R
MOORHEAD       MOCLDY    72  48  43 S24G32    29.98R
FERGUS FALLS   CLOUDY    66  54  63 SE15G22   30.02S
ELBOW LAKE     CLOUDY    65  53  64 SE20G25   30.02S
MORRIS MN      CLOUDY    64  54  68 SE21      30.02S
STAPLES        CLOUDY    66  43  42 S10G18    30.07R
WHEATON        CLOUDY    64  54  68 SE21      30.01R
$$
  *****  WEATHER ELSEWHERE ACROSS MINNESOTA  *****

CITY           SKY/WX    TMP DP  RH WIND       PRES   REMARKS
DULUTH         PTCLDY    60  26  27 E12       30.14S
INTRNTL FALLS  CLEAR     68  25  19 S5        30.07S
ELY            PTCLDY    64  27  24 SE8       30.14R
CLOQUET        PTCLDY    57  25  28 E9        30.14S
BRAINERD       CLOUDY    67  42  40 S10       30.08S
HIBBING        PTCLDY    68  26  20 SE10      30.10S
ALEXANDRIA     CLOUDY    64  52  64 SE16G24   30.07R
SAINT CLOUD    CLOUDY    64  49  57 SE12      30.08S
MINNEAPOLIS    CLOUDY    60  54  80 SE10      30.13R
$$

  *****  WEATHER ACROSS SOUTH DAKOTA  *****

CITY           SKY/WX    TMP DP  RH WIND       PRES   REMARKS
SIOUX FALLS    CLOUDY    66  58  75 E20       29.98S
BROOKINGS      CLOUDY    64  57  77 SE12      30.00F
WATERTOWN      LGT RAIN  63  56  78 SE17      29.99S
HURON          CLOUDY    64  59  83 SE8       29.94S
SISSETON         N/A     66  55  67 S23G29    29.96S
ABERDEEN       CLOUDY    70  54  56 S17       29.93R
MITCHELL       CLOUDY    66  59  78 E6        29.94F
PIERRE         CLOUDY    61  54  77 SE13      29.88F
MOBRIDGE       MOCLDY    69  52  54 S20       29.85S
RAPID CITY     CLOUDY    62  51  67 S21       29.83F
$$

  *****  SOME WEATHER IN NEARBY STATES *****

CITY           SKY/WX    TMP DP  RH WIND       PRES   REMARKS
GLASGOW MT     MOSUNNY   78  40  25 SE8       29.61F
GREAT FALLS MT LGT RAIN  56  47  71 N7        29.75R
CHEYENNE WY    CLOUDY    49  45  86 SE10      29.85F
SCOTTSBLUFF NE LGT RAIN  55  53  93 SE15G25   29.84F
OMAHA NE       CLOUDY    73  59  61 SE10      29.97S
DES MOINES IA  CLOUDY    75  59  57 SE7       30.04R
DAVENPORT IA   CLOUDY    62  58  86 E13       30.14R FOG
CHICAGO IL     FOG       49  48  97 NE8       30.21R VSB 3/4
EAU CLAIRE WI  CLOUDY    63  41  44 SE18      30.17R
LA CROSSE WI   LGT RAIN  56  53  90 SE5       30.18R FOG
$$

  *****  SOME NATIONAL WEATHER *****

CITY           SKY/WX    TMP DP  RH WIND       PRES   REMARKS
LA GUARDIA NY  MOCLDY    70  52  52 VRB5      30.16R
RALEIGH NC     PTCLDY    72  54  53 S5        30.25R
ATLANTA GA     PTCLDY    75  50  41 SE6       30.22R
NEW ORLEANS LA PTCLDY    74  59  59 SE9       30.09S
OKLAHOMA CITY  LGT RAIN  66  63  88 E10       29.89F FOG
ALBUQUERQUE NM MOCLDY    55  47  74 S8        29.92R
SALT LAKE CITY PTSUNNY   66  44  45 CALM      29.75S
LOS ANGELES CA PTSUNNY   61  50  67 W12       29.94F
BOISE ID       SUNNY     69  17  13 NW17G26   29.77F
SEATTLE WA     PTSUNNY   57  41  55 W12G20    30.07R
$$

*** WEATHER ACROSS MANITOBA...SASKATCHEWAN AND ONTARIO ***
                ***ONTARIO***

CITY           SKY/WX    TMP DP  RH WIND       PRES   REMARKS
GERALDTON      CLEAR     59  28  31 SW12      30.20R
THUNDER BAY    PTCLDY    57  28  33 NE5       30.21R
SIOUX LOOKOUT  PTCLDY    63  34  34 S3        30.10S
TORONTO        MOCLDY    55  32  41 S5        30.28R
BIG TROUT LK   MOCLDY    45  23  42 NW5       30.17R
PICKLE LAKE    MOCLDY    59  34  38 E5        30.11S
DRYDEN         MOCLDY    66  27  22 S6        30.09S
KENORA         MOCLDY    68  28  22 W2        30.06F
$$
                *** MANITOBA***

CITY           SKY/WX    TMP DP  RH WIND       PRES   REMARKS
BRANDON        MOCLDY    72  32  23 S12       29.88F
DAUPHIN        MOCLDY    75  37  25 SW18G24   29.85S
ISLAND LAKE    LGT RAIN  37  36  93 NE2       30.15S
PILOT MOUND      N/A     70  21  16 S14         N/A
THE PAS        PTSUNNY   43  36  75 E8G17     30.02F
THOMPSON       PTCLDY    48  16  27 E3        30.13S
WINNIPEG       PTCLDY    72  23  16 S12       29.96S
LYNN LAKE      SUNNY     46  18  31 E8        30.11S
CHURCHILL      PTCLDY    19  14  79 N17       30.27S WCI   4
GILLAM         PTCLDY    41  21  45 CALM      30.19S
$$
                ***SASKATCHEWAN***

CITY           SKY/WX    TMP DP  RH WIND       PRES   REMARKS
ESTEVAN        MOSUNNY   73  48  40 SE20G29   29.76F
KINDERSLEY     PTSUNNY   72  37  28 SE5       29.64F
LLOYDMINSTER   MOSUNNY   64  41  42 E22       29.65F
PRINCE ALBERT  CLOUDY    54  37  54 E20G28    29.78F
REGINA         CLOUDY    73  41  31 SE14G21   29.70S
YORKTON        SUNNY     75  37  25 S13       29.77S


USA.gov is the U.S. government's official web portal to all federal, state and local government web resources and services.